Home   Weather   Roanoke   Past weeks

Flag for USA Past Weather in Roanoke, Virginia, USA — Yesterday and Last 2 Weeks

Now
50 °F

Overcast.


Feels Like: 50 °F
Forecast: 48 / 52 °F
Wind: No wind

Location: Roanoke Regional Airport

Current Time: Apr 23, 2017 at 10:20:36 am

Latest Report: Apr 23, 2017 at 9:43 am


Visibility: 10 mi

Pressure: 30.10 "Hg

Humidity: 83%

Dew Point: 45 °F

Location of RoanokeLocation

Past Weather in Roanoke — Graph

°F

Roanoke Temperature Yesterday

Maximum temperature yesterday: 68 °F (at 11:54 am)
Minimum temperature yesterday: 53 °F (at 8:54 pm)
Average temperature yesterday: 62 °F

High & Low Weather Summary for the Past Weeks

 TemperatureHumidityPressure
High85 °F (Apr 11, 3:54 pm)100% (Apr 20, 1:54 am)30.43 "Hg (Apr 20, 1:54 am)
Low38 °F (Apr 9, 6:54 am)16% (Apr 8, 5:54 pm)29.84 "Hg (Apr 22, 5:54 am)
Average64 °F61%30.16 "Hg
* Reported Apr 8 8:54 am — Apr 23 8:54 am, Roanoke, Weather by CustomWeather, © 2017

Note: Actual official high and low records may vary slightly from our data, if they occured in-between our weather recording intervals... More about our weather records

Advertising

Roanoke Weather History for the Previous 24 Hours

Scroll right to see more
 ConditionsComfort  
Time TempWeatherWind HumidityBarometerVisibility
8:54 am
Sun, Apr 23
50 °FMostly cloudy.5 mph83%30.09 "Hg10 mi
7:54 am49 °FMostly cloudy.6 mph86%30.08 "Hg10 mi
6:54 am49 °FMostly cloudy.7 mph90%30.06 "Hg10 mi
5:54 am50 °FOvercast.No wind86%30.04 "Hg10 mi
4:54 am50 °FOvercast.3 mph89%30.04 "Hg10 mi
3:54 am49 °FOvercast.5 mph93%30.03 "Hg10 mi
2:54 am50 °FMostly cloudy.9 mph93%30.02 "Hg10 mi
2:31 am49 °FLight rain. Mostly cloudy.7 mph100%30.04 "Hg7 mi
1:54 am50 °FLight rain. Overcast.No wind96%30.03 "Hg8 mi
12:54 am51 °FLight rain. Overcast.10 mph86%30.04 "Hg10 mi
12:38 am51 °FLight rain. Overcast.8 mph89%30.03 "Hg10 mi
12:08 am51 °FLight rain. Mostly cloudy.7 mph89%30.02 "Hg10 mi
12:01 am52 °FLight rain. Mostly cloudy.8 mph86%30.01 "Hg10 mi
10:54 pm
Sat, Apr 22
53 °FLight rain. Overcast.5 mph89%30.02 "Hg10 mi
9:54 pm53 °FLight rain. Overcast.8 mph89%29.99 "Hg10 mi
9:43 pm53 °FLight rain. Mostly cloudy.6 mph93%30.01 "Hg10 mi
8:54 pm53 °FLight rain. Fog.13 mph93%29.98 "Hg5 mi
7:54 pm56 °FOvercast.10 mph84%29.95 "Hg10 mi
7:18 pm57 °FOvercast.9 mph87%29.96 "Hg10 mi
6:54 pm57 °FLow clouds.9 mph90%29.93 "Hg10 mi
5:54 pm58 °FLow clouds.8 mph93%29.90 "Hg10 mi
5:37 pm58 °FMostly cloudy.7 mph93%29.92 "Hg10 mi
5:04 pm59 °FLight rain. Cloudy.7 mph93%29.90 "Hg10 mi
3:54 pm61 °FMore clouds than sun.13 mph93%29.87 "Hg10 mi
3:25 pm62 °FLight rain. More clouds than sun.14 mph93%29.90 "Hg10 mi
2:39 pm65 °FThunderstorms. Low clouds.No wind87%29.91 "Hg10 mi
2:06 pm65 °FLight rain. Low clouds.8 mph78%29.90 "Hg7 mi
1:54 pm65 °FThunderstorms. Fog.9 mph97%29.87 "Hg4 mi
1:36 pm65 °FStrong thunderstorms. Fog.3 mph97%29.89 "Hg2 mi
1:02 pm66 °FThunderstorms. Overcast.No wind93%29.89 "Hg8 mi
12:54 pm66 °FRain. Fog.5 mph93%29.86 "Hg5 mi
11:54 am68 °FMostly cloudy.5 mph82%29.87 "Hg10 mi
11:12 am66 °FMostly cloudy.No wind90%29.90 "Hg10 mi
10:54 am65 °FMostly cloudy.No wind91%29.88 "Hg10 mi
10:22 am64 °FLight rain. Mostly cloudy.No wind97%29.91 "Hg7 mi
Weather by CustomWeather, © 2017

See weather overviewHow to use our weather pages